WMT9PS LROP-LEMD

Flight info

Callsign WMT9PS
Flight time N/A
Altitude 34000
Route SOKRU DCT OXDOC DCT IBINU DCT MAVIR DCT KOPRY DCT PODET DCT LUPIX DCT RIFEN DCT RIDVA DCT TESTO DCT GEKBA DCT VAMTU DCT KOLON DCT GANGU DCT PADKO DCT DIVKO DCT NILDU DCT NENDA DCT BCN DCT ANTON DCT XIKEN DCT OSLAP DCT SALAS DCT RAMON DCT NEXAS DCT DISVU DCT ADUXO
Aircraft A21N/M-SDE1E2E3FGIJ1J4RWXY/LB1

Departure

Time N/A
Airport Bucharest Henri Coandă International Airport (LROP)

Arrival

Time 2026-05-01 09:46
Airport Adolfo Suárez Madrid–Barajas Airport (LEMD)
Time Latitude Longitude Altitude Speed Heading
2026-05-01 09:33 40.25843 -2.61783 15739 ft 333 kts 263°
2026-05-01 09:33 40.25903 -2.67799 14711 ft 329 kts 270°
2026-05-01 09:34 40.25938 -2.69817 14371 ft 327 kts 269°
2026-05-01 09:34 40.25962 -2.72765 13941 ft 322 kts 269°
2026-05-01 09:34 40.25969 -2.78641 12803 ft 318 kts 268°
2026-05-01 09:35 40.25957 -2.81531 12247 ft 316 kts 268°
2026-05-01 09:35 40.25924 -2.87260 11200 ft 313 kts 268°
2026-05-01 09:35 40.25910 -2.90207 10703 ft 311 kts 268°
2026-05-01 09:36 40.25902 -2.92954 10233 ft 308 kts 268°
2026-05-01 09:36 40.25892 -2.95755 9740 ft 305 kts 268°
2026-05-01 09:36 40.25876 -2.98494 9447 ft 296 kts 268°
2026-05-01 09:36 40.25866 -3.01166 9167 ft 286 kts 268°
2026-05-01 09:37 40.25857 -3.03741 8880 ft 278 kts 268°
2026-05-01 09:37 40.25836 -3.08595 8541 ft 254 kts 268°
2026-05-01 09:37 40.25827 -3.10924 8340 ft 246 kts 267°
2026-05-01 09:38 40.26028 -3.15426 7854 ft 237 kts 277°
2026-05-01 09:38 40.26304 -3.17503 7661 ft 226 kts 277°
2026-05-01 09:38 40.26568 -3.19525 7426 ft 221 kts 277°
2026-05-01 09:39 40.27085 -3.23485 6971 ft 221 kts 276°
2026-05-01 09:39 40.27349 -3.25490 6710 ft 221 kts 277°
2026-05-01 09:39 40.27614 -3.27484 6418 ft 219 kts 277°
2026-05-01 09:40 40.27872 -3.29412 6191 ft 211 kts 277°
2026-05-01 09:40 40.28464 -3.32826 5954 ft 184 kts 291°
2026-05-01 09:40 40.29153 -3.34257 5835 ft 169 kts 305°
2026-05-01 09:41 40.29914 -3.35386 5400 ft 166 kts 311°
2026-05-01 09:41 40.31634 -3.37462 5043 ft 166 kts 317°
2026-05-01 09:41 40.32517 -3.38423 4951 ft 167 kts 318°
2026-05-01 09:42 40.33406 -3.39377 4952 ft 165 kts 316°
2026-05-01 09:42 40.34282 -3.40327 4968 ft 164 kts 321°
2026-05-01 09:42 40.36103 -3.42191 4702 ft 167 kts 320°
2026-05-01 09:43 40.37915 -3.44030 4269 ft 163 kts 321°
2026-05-01 09:43 40.38808 -3.44935 4043 ft 162 kts 322°
2026-05-01 09:43 40.39695 -3.45835 3838 ft 161 kts 322°
2026-05-01 09:44 40.41457 -3.47623 3416 ft 159 kts 322°
2026-05-01 09:44 40.42332 -3.48511 3179 ft 158 kts 322°
2026-05-01 09:44 40.43205 -3.49398 2965 ft 158 kts 322°
2026-05-01 09:45 40.44076 -3.50283 2755 ft 159 kts 322°
2026-05-01 09:45 40.45813 -3.52049 2337 ft 157 kts 320°
2026-05-01 09:45 40.46674 -3.52933 2165 ft 157 kts 318°
2026-05-01 09:46 40.47536 -3.53808 1994 ft 152 kts 320°
2026-05-01 09:46 40.48248 -3.54528 1990 ft 99 kts 323°
2026-05-01 09:46 40.48642 -3.54929 1987 ft 50 kts 320°
2026-05-01 09:46 40.48803 -3.55237 1987 ft 35 kts 295°
2026-05-01 09:47 40.48878 -3.55443 1988 ft 21 kts 307°
2026-05-01 09:47 40.48991 -3.55566 1986 ft 22 kts 323°
2026-05-01 09:47 40.49115 -3.55694 1988 ft 23 kts 321°
2026-05-01 09:47 40.49229 -3.55810 1990 ft 20 kts 322°
2026-05-01 09:48 40.49302 -3.55956 1986 ft 21 kts 263°
2026-05-01 09:48 40.49279 -3.56127 1988 ft 18 kts 213°
2026-05-01 09:48 40.49151 -3.56140 1986 ft 20 kts 178°
2026-05-01 09:48 40.49009 -3.56146 1986 ft 21 kts 178°
2026-05-01 09:49 40.48856 -3.56142 1986 ft 23 kts 179°
2026-05-01 09:49 40.48767 -3.56231 1988 ft 18 kts 265°
2026-05-01 09:49 40.48766 -3.56399 1987 ft 19 kts 270°
2026-05-01 09:49 40.48766 -3.56583 1989 ft 21 kts 270°
2026-05-01 09:50 40.48766 -3.56780 1989 ft 22 kts 271°
2026-05-01 09:50 40.48766 -3.56987 1988 ft 23 kts 269°
2026-05-01 09:50 40.48766 -3.57126 1987 ft 23 kts 270°
2026-05-01 09:50 40.48767 -3.57343 1987 ft 24 kts 268°
2026-05-01 09:51 40.48764 -3.57563 1986 ft 25 kts 270°
2026-05-01 09:51 40.48764 -3.57796 1986 ft 26 kts 270°
2026-05-01 09:51 40.48690 -3.57937 1986 ft 22 kts 178°
2026-05-01 09:51 40.48543 -3.57891 1987 ft 22 kts 151°
2026-05-01 09:52 40.48405 -3.57789 1986 ft 23 kts 146°
2026-05-01 09:52 40.48276 -3.57657 1987 ft 24 kts 142°
2026-05-01 09:52 40.48143 -3.57519 1986 ft 25 kts 140°
2026-05-01 09:52 40.48005 -3.57379 1986 ft 25 kts 141°
2026-05-01 09:53 40.47878 -3.57251 1986 ft 22 kts 143°
2026-05-01 09:53 40.47752 -3.57131 1986 ft 23 kts 145°
2026-05-01 09:53 40.47627 -3.57000 1990 ft 23 kts 141°
2026-05-01 09:53 40.47496 -3.56865 1987 ft 24 kts 143°
2026-05-01 09:54 40.47359 -3.56730 1986 ft 25 kts 141°
2026-05-01 09:54 40.47223 -3.56584 1986 ft 26 kts 141°
2026-05-01 09:54 40.47074 -3.56466 1987 ft 25 kts 165°
2026-05-01 09:54 40.46901 -3.56453 1987 ft 25 kts 184°
2026-05-01 09:55 40.46793 -3.56511 1988 ft 16 kts 265°
2026-05-01 09:55 40.46799 -3.56598 1987 ft 10 kts 268°
2026-05-01 09:55 40.46749 -3.56655 1986 ft 11 kts 189°
2026-05-01 09:55 40.46670 -3.56660 1988 ft 12 kts 182°
2026-05-01 09:56 40.46583 -3.56666 1986 ft 13 kts 183°
2026-05-01 09:56 40.46533 -3.56670 1986 ft 5 kts 184°
2026-05-01 09:56 40.46496 -3.56673 1987 ft 6 kts 181°
2026-05-01 09:56 40.46458 -3.56695 1987 ft 7 kts 242°
2026-05-01 09:57 40.46458 -3.56763 1986 ft 8 kts 276°
2026-05-01 09:57 40.46461 -3.56811 1986 ft 0 kts 275°
2026-05-01 09:58 40.46461 -3.56812 1986 ft 0 kts 275°